<?xml version="1.0"?>
<gpx xmlns="http://www.topografix.com/GPX/1/1" xmlns:xsi="http://www.w3.org/2001/XMLSchema-instance" version="1.1" creator="GPX RubyGem 1.0.0 -- http://dougfales.github.io/gpx/" xsi:schemaLocation="http://www.topografix.com/GPX/1/1 http://www.topografix.com/GPX/1/1/gpx.xsd">
  <metadata>
    <name/>
    <time>2026-05-10T06:20:42+00:00</time>
    <bound minlat="90.0" minlon="180.0" maxlat="-90.0" maxlon="-180.0"/>
  </metadata>
  <trk>
    <name/>
    <trkseg>
      <trkpt lat="50.610065" lon="13.433813">
        <time>1970-01-01T00:00:00+00:00</time>
        <ele>576.0</ele>
      </trkpt>
      <trkpt lat="50.610067" lon="13.433485">
        <time>1970-01-01T00:00:00+00:00</time>
        <ele>575.0</ele>
      </trkpt>
      <trkpt lat="50.610084" lon="13.433211">
        <time>1970-01-01T00:00:00+00:00</time>
        <ele>574.0</ele>
      </trkpt>
      <trkpt lat="50.609931" lon="13.432909">
        <time>1970-01-01T00:00:00+00:00</time>
        <ele>578.0</ele>
      </trkpt>
      <trkpt lat="50.609971" lon="13.43209">
        <time>1970-01-01T00:00:00+00:00</time>
        <ele>577.0</ele>
      </trkpt>
      <trkpt lat="50.610013" lon="13.432">
        <time>1970-01-01T00:00:00+00:00</time>
        <ele>575.0</ele>
      </trkpt>
      <trkpt lat="50.609949" lon="13.431874">
        <time>1970-01-01T00:00:00+00:00</time>
        <ele>578.0</ele>
      </trkpt>
      <trkpt lat="50.609934" lon="13.431718">
        <time>1970-01-01T00:00:00+00:00</time>
        <ele>579.0</ele>
      </trkpt>
      <trkpt lat="50.60994" lon="13.431568">
        <time>1970-01-01T00:00:00+00:00</time>
        <ele>579.0</ele>
      </trkpt>
      <trkpt lat="50.610058" lon="13.430246">
        <time>1970-01-01T00:00:00+00:00</time>
        <ele>575.0</ele>
      </trkpt>
      <trkpt lat="50.610012" lon="13.429788">
        <time>1970-01-01T00:00:00+00:00</time>
        <ele>576.0</ele>
      </trkpt>
      <trkpt lat="50.610008" lon="13.429554">
        <time>1970-01-01T00:00:00+00:00</time>
        <ele>576.0</ele>
      </trkpt>
      <trkpt lat="50.610071" lon="13.42905">
        <time>1970-01-01T00:00:00+00:00</time>
        <ele>574.0</ele>
      </trkpt>
      <trkpt lat="50.610031" lon="13.428873">
        <time>1970-01-01T00:00:00+00:00</time>
        <ele>574.0</ele>
      </trkpt>
      <trkpt lat="50.609933" lon="13.428603">
        <time>1970-01-01T00:00:00+00:00</time>
        <ele>574.0</ele>
      </trkpt>
      <trkpt lat="50.60982" lon="13.428377">
        <time>1970-01-01T00:00:00+00:00</time>
        <ele>575.0</ele>
      </trkpt>
      <trkpt lat="50.610008" lon="13.428144">
        <time>1970-01-01T00:00:00+00:00</time>
        <ele>574.0</ele>
      </trkpt>
      <trkpt lat="50.610443" lon="13.42772">
        <time>1970-01-01T00:00:00+00:00</time>
        <ele>573.0</ele>
      </trkpt>
      <trkpt lat="50.610598" lon="13.427655">
        <time>1970-01-01T00:00:00+00:00</time>
        <ele>571.0</ele>
      </trkpt>
      <trkpt lat="50.610648" lon="13.427647">
        <time>1970-01-01T00:00:00+00:00</time>
        <ele>571.0</ele>
      </trkpt>
      <trkpt lat="50.610886" lon="13.42683">
        <time>1970-01-01T00:00:00+00:00</time>
        <ele>576.0</ele>
      </trkpt>
      <trkpt lat="50.611042" lon="13.425832">
        <time>1970-01-01T00:00:00+00:00</time>
        <ele>581.0</ele>
      </trkpt>
      <trkpt lat="50.611287" lon="13.42491">
        <time>1970-01-01T00:00:00+00:00</time>
        <ele>599.0</ele>
      </trkpt>
      <trkpt lat="50.611356" lon="13.424566">
        <time>1970-01-01T00:00:00+00:00</time>
        <ele>605.0</ele>
      </trkpt>
      <trkpt lat="50.611294" lon="13.423558">
        <time>1970-01-01T00:00:00+00:00</time>
        <ele>623.0</ele>
      </trkpt>
      <trkpt lat="50.61124" lon="13.423086">
        <time>1970-01-01T00:00:00+00:00</time>
        <ele>629.0</ele>
      </trkpt>
      <trkpt lat="50.611383" lon="13.422732">
        <time>1970-01-01T00:00:00+00:00</time>
        <ele>635.0</ele>
      </trkpt>
      <trkpt lat="50.611512" lon="13.422485">
        <time>1970-01-01T00:00:00+00:00</time>
        <ele>637.0</ele>
      </trkpt>
      <trkpt lat="50.611485" lon="13.42226">
        <time>1970-01-01T00:00:00+00:00</time>
        <ele>642.0</ele>
      </trkpt>
      <trkpt lat="50.61139" lon="13.421992">
        <time>1970-01-01T00:00:00+00:00</time>
        <ele>648.0</ele>
      </trkpt>
      <trkpt lat="50.610266" lon="13.420564">
        <time>1970-01-01T00:00:00+00:00</time>
        <ele>660.0</ele>
      </trkpt>
      <trkpt lat="50.60981" lon="13.419835">
        <time>1970-01-01T00:00:00+00:00</time>
        <ele>669.0</ele>
      </trkpt>
      <trkpt lat="50.609551" lon="13.418923">
        <time>1970-01-01T00:00:00+00:00</time>
        <ele>680.0</ele>
      </trkpt>
      <trkpt lat="50.60934" lon="13.417743">
        <time>1970-01-01T00:00:00+00:00</time>
        <ele>677.0</ele>
      </trkpt>
      <trkpt lat="50.609221" lon="13.417431">
        <time>1970-01-01T00:00:00+00:00</time>
        <ele>678.0</ele>
      </trkpt>
      <trkpt lat="50.609153" lon="13.417352">
        <time>1970-01-01T00:00:00+00:00</time>
        <ele>680.0</ele>
      </trkpt>
      <trkpt lat="50.606769" lon="13.416166">
        <time>1970-01-01T00:00:00+00:00</time>
        <ele>713.0</ele>
      </trkpt>
      <trkpt lat="50.606651" lon="13.416132">
        <time>1970-01-01T00:00:00+00:00</time>
        <ele>712.0</ele>
      </trkpt>
      <trkpt lat="50.606561" lon="13.416147">
        <time>1970-01-01T00:00:00+00:00</time>
        <ele>712.0</ele>
      </trkpt>
      <trkpt lat="50.606467" lon="13.415985">
        <time>1970-01-01T00:00:00+00:00</time>
        <ele>710.0</ele>
      </trkpt>
      <trkpt lat="50.606355" lon="13.415738">
        <time>1970-01-01T00:00:00+00:00</time>
        <ele>707.0</ele>
      </trkpt>
      <trkpt lat="50.605872" lon="13.415058">
        <time>1970-01-01T00:00:00+00:00</time>
        <ele>713.0</ele>
      </trkpt>
      <trkpt lat="50.605628" lon="13.41434">
        <time>1970-01-01T00:00:00+00:00</time>
        <ele>723.0</ele>
      </trkpt>
      <trkpt lat="50.605459" lon="13.41395">
        <time>1970-01-01T00:00:00+00:00</time>
        <ele>726.0</ele>
      </trkpt>
      <trkpt lat="50.605323" lon="13.413807">
        <time>1970-01-01T00:00:00+00:00</time>
        <ele>727.0</ele>
      </trkpt>
      <trkpt lat="50.605135" lon="13.413824">
        <time>1970-01-01T00:00:00+00:00</time>
        <ele>729.0</ele>
      </trkpt>
      <trkpt lat="50.605333" lon="13.41342">
        <time>1970-01-01T00:00:00+00:00</time>
        <ele>728.0</ele>
      </trkpt>
      <trkpt lat="50.605496" lon="13.413011">
        <time>1970-01-01T00:00:00+00:00</time>
        <ele>729.0</ele>
      </trkpt>
      <trkpt lat="50.605853" lon="13.411893">
        <time>1970-01-01T00:00:00+00:00</time>
        <ele>726.0</ele>
      </trkpt>
      <trkpt lat="50.607277" lon="13.407665">
        <time>1970-01-01T00:00:00+00:00</time>
        <ele>707.0</ele>
      </trkpt>
      <trkpt lat="50.607376" lon="13.407451">
        <time>1970-01-01T00:00:00+00:00</time>
        <ele>707.0</ele>
      </trkpt>
      <trkpt lat="50.607434" lon="13.407326">
        <time>1970-01-01T00:00:00+00:00</time>
        <ele>707.0</ele>
      </trkpt>
      <trkpt lat="50.60733" lon="13.406577">
        <time>1970-01-01T00:00:00+00:00</time>
        <ele>721.0</ele>
      </trkpt>
      <trkpt lat="50.607509" lon="13.405792">
        <time>1970-01-01T00:00:00+00:00</time>
        <ele>733.0</ele>
      </trkpt>
      <trkpt lat="50.607624" lon="13.405526">
        <time>1970-01-01T00:00:00+00:00</time>
        <ele>734.0</ele>
      </trkpt>
      <trkpt lat="50.60793" lon="13.404989">
        <time>1970-01-01T00:00:00+00:00</time>
        <ele>735.0</ele>
      </trkpt>
      <trkpt lat="50.608188" lon="13.404598">
        <time>1970-01-01T00:00:00+00:00</time>
        <ele>735.0</ele>
      </trkpt>
      <trkpt lat="50.608612" lon="13.404253">
        <time>1970-01-01T00:00:00+00:00</time>
        <ele>743.0</ele>
      </trkpt>
      <trkpt lat="50.609107" lon="13.40397">
        <time>1970-01-01T00:00:00+00:00</time>
        <ele>742.0</ele>
      </trkpt>
      <trkpt lat="50.609359" lon="13.403699">
        <time>1970-01-01T00:00:00+00:00</time>
        <ele>743.0</ele>
      </trkpt>
      <trkpt lat="50.609503" lon="13.403257">
        <time>1970-01-01T00:00:00+00:00</time>
        <ele>749.0</ele>
      </trkpt>
      <trkpt lat="50.609585" lon="13.402765">
        <time>1970-01-01T00:00:00+00:00</time>
        <ele>758.0</ele>
      </trkpt>
      <trkpt lat="50.609582" lon="13.402103">
        <time>1970-01-01T00:00:00+00:00</time>
        <ele>765.0</ele>
      </trkpt>
      <trkpt lat="50.609466" lon="13.40182">
        <time>1970-01-01T00:00:00+00:00</time>
        <ele>767.0</ele>
      </trkpt>
      <trkpt lat="50.60919" lon="13.401661">
        <time>1970-01-01T00:00:00+00:00</time>
        <ele>770.0</ele>
      </trkpt>
      <trkpt lat="50.608526" lon="13.401905">
        <time>1970-01-01T00:00:00+00:00</time>
        <ele>773.0</ele>
      </trkpt>
      <trkpt lat="50.607836" lon="13.402284">
        <time>1970-01-01T00:00:00+00:00</time>
        <ele>776.0</ele>
      </trkpt>
      <trkpt lat="50.607308" lon="13.402765">
        <time>1970-01-01T00:00:00+00:00</time>
        <ele>779.0</ele>
      </trkpt>
      <trkpt lat="50.606734" lon="13.403059">
        <time>1970-01-01T00:00:00+00:00</time>
        <ele>781.0</ele>
      </trkpt>
      <trkpt lat="50.606464" lon="13.403099">
        <time>1970-01-01T00:00:00+00:00</time>
        <ele>785.0</ele>
      </trkpt>
      <trkpt lat="50.6066" lon="13.402686">
        <time>1970-01-01T00:00:00+00:00</time>
        <ele>789.0</ele>
      </trkpt>
      <trkpt lat="50.60672" lon="13.402258">
        <time>1970-01-01T00:00:00+00:00</time>
        <ele>789.0</ele>
      </trkpt>
      <trkpt lat="50.606761" lon="13.401889">
        <time>1970-01-01T00:00:00+00:00</time>
        <ele>791.0</ele>
      </trkpt>
      <trkpt lat="50.606853" lon="13.400671">
        <time>1970-01-01T00:00:00+00:00</time>
        <ele>799.0</ele>
      </trkpt>
      <trkpt lat="50.607171" lon="13.399772">
        <time>1970-01-01T00:00:00+00:00</time>
        <ele>803.0</ele>
      </trkpt>
      <trkpt lat="50.607405" lon="13.399489">
        <time>1970-01-01T00:00:00+00:00</time>
        <ele>801.0</ele>
      </trkpt>
      <trkpt lat="50.607626" lon="13.399286">
        <time>1970-01-01T00:00:00+00:00</time>
        <ele>800.0</ele>
      </trkpt>
      <trkpt lat="50.607278" lon="13.399305">
        <time>1970-01-01T00:00:00+00:00</time>
        <ele>803.0</ele>
      </trkpt>
      <trkpt lat="50.607128" lon="13.399376">
        <time>1970-01-01T00:00:00+00:00</time>
        <ele>805.0</ele>
      </trkpt>
      <trkpt lat="50.606382" lon="13.399841">
        <time>1970-01-01T00:00:00+00:00</time>
        <ele>814.0</ele>
      </trkpt>
      <trkpt lat="50.60598" lon="13.400034">
        <time>1970-01-01T00:00:00+00:00</time>
        <ele>817.0</ele>
      </trkpt>
      <trkpt lat="50.605787" lon="13.400087">
        <time>1970-01-01T00:00:00+00:00</time>
        <ele>818.0</ele>
      </trkpt>
      <trkpt lat="50.605406" lon="13.400295">
        <time>1970-01-01T00:00:00+00:00</time>
        <ele>823.0</ele>
      </trkpt>
      <trkpt lat="50.605216" lon="13.400309">
        <time>1970-01-01T00:00:00+00:00</time>
        <ele>826.0</ele>
      </trkpt>
      <trkpt lat="50.604823" lon="13.400274">
        <time>1970-01-01T00:00:00+00:00</time>
        <ele>829.0</ele>
      </trkpt>
      <trkpt lat="50.605759" lon="13.399222">
        <time>1970-01-01T00:00:00+00:00</time>
        <ele>829.0</ele>
      </trkpt>
      <trkpt lat="50.60604" lon="13.398819">
        <time>1970-01-01T00:00:00+00:00</time>
        <ele>829.0</ele>
      </trkpt>
      <trkpt lat="50.606171" lon="13.398536">
        <time>1970-01-01T00:00:00+00:00</time>
        <ele>830.0</ele>
      </trkpt>
      <trkpt lat="50.606302" lon="13.398074">
        <time>1970-01-01T00:00:00+00:00</time>
        <ele>832.0</ele>
      </trkpt>
      <trkpt lat="50.606435" lon="13.397647">
        <time>1970-01-01T00:00:00+00:00</time>
        <ele>834.0</ele>
      </trkpt>
      <trkpt lat="50.606462" lon="13.397788">
        <time>1970-01-01T00:00:00+00:00</time>
        <ele>832.0</ele>
      </trkpt>
      <trkpt lat="50.606613" lon="13.397779">
        <time>1970-01-01T00:00:00+00:00</time>
        <ele>830.0</ele>
      </trkpt>
      <trkpt lat="50.606703" lon="13.397897">
        <time>1970-01-01T00:00:00+00:00</time>
        <ele>827.0</ele>
      </trkpt>
      <trkpt lat="50.606703" lon="13.397897">
        <time>1970-01-01T00:00:00+00:00</time>
        <ele>827.0</ele>
      </trkpt>
      <trkpt lat="50.606703" lon="13.397897">
        <time>1970-01-01T00:00:00+00:00</time>
        <ele>827.0</ele>
      </trkpt>
      <trkpt lat="50.606703" lon="13.397897">
        <time>1970-01-01T00:00:00+00:00</time>
        <ele>827.0</ele>
      </trkpt>
      <trkpt lat="50.606613" lon="13.397779">
        <time>1970-01-01T00:00:00+00:00</time>
        <ele>830.0</ele>
      </trkpt>
      <trkpt lat="50.606462" lon="13.397788">
        <time>1970-01-01T00:00:00+00:00</time>
        <ele>832.0</ele>
      </trkpt>
      <trkpt lat="50.606435" lon="13.397647">
        <time>1970-01-01T00:00:00+00:00</time>
        <ele>834.0</ele>
      </trkpt>
      <trkpt lat="50.606302" lon="13.398074">
        <time>1970-01-01T00:00:00+00:00</time>
        <ele>832.0</ele>
      </trkpt>
      <trkpt lat="50.606171" lon="13.398536">
        <time>1970-01-01T00:00:00+00:00</time>
        <ele>830.0</ele>
      </trkpt>
      <trkpt lat="50.60604" lon="13.398819">
        <time>1970-01-01T00:00:00+00:00</time>
        <ele>829.0</ele>
      </trkpt>
      <trkpt lat="50.605759" lon="13.399222">
        <time>1970-01-01T00:00:00+00:00</time>
        <ele>829.0</ele>
      </trkpt>
      <trkpt lat="50.604823" lon="13.400274">
        <time>1970-01-01T00:00:00+00:00</time>
        <ele>829.0</ele>
      </trkpt>
      <trkpt lat="50.605216" lon="13.400309">
        <time>1970-01-01T00:00:00+00:00</time>
        <ele>826.0</ele>
      </trkpt>
      <trkpt lat="50.605406" lon="13.400295">
        <time>1970-01-01T00:00:00+00:00</time>
        <ele>823.0</ele>
      </trkpt>
      <trkpt lat="50.605787" lon="13.400087">
        <time>1970-01-01T00:00:00+00:00</time>
        <ele>818.0</ele>
      </trkpt>
      <trkpt lat="50.60598" lon="13.400034">
        <time>1970-01-01T00:00:00+00:00</time>
        <ele>817.0</ele>
      </trkpt>
      <trkpt lat="50.606382" lon="13.399841">
        <time>1970-01-01T00:00:00+00:00</time>
        <ele>814.0</ele>
      </trkpt>
      <trkpt lat="50.607128" lon="13.399376">
        <time>1970-01-01T00:00:00+00:00</time>
        <ele>805.0</ele>
      </trkpt>
      <trkpt lat="50.607278" lon="13.399305">
        <time>1970-01-01T00:00:00+00:00</time>
        <ele>803.0</ele>
      </trkpt>
      <trkpt lat="50.607626" lon="13.399286">
        <time>1970-01-01T00:00:00+00:00</time>
        <ele>800.0</ele>
      </trkpt>
      <trkpt lat="50.607405" lon="13.399489">
        <time>1970-01-01T00:00:00+00:00</time>
        <ele>801.0</ele>
      </trkpt>
      <trkpt lat="50.607171" lon="13.399772">
        <time>1970-01-01T00:00:00+00:00</time>
        <ele>803.0</ele>
      </trkpt>
      <trkpt lat="50.606853" lon="13.400671">
        <time>1970-01-01T00:00:00+00:00</time>
        <ele>799.0</ele>
      </trkpt>
      <trkpt lat="50.606761" lon="13.401889">
        <time>1970-01-01T00:00:00+00:00</time>
        <ele>791.0</ele>
      </trkpt>
      <trkpt lat="50.60672" lon="13.402258">
        <time>1970-01-01T00:00:00+00:00</time>
        <ele>789.0</ele>
      </trkpt>
      <trkpt lat="50.6066" lon="13.402686">
        <time>1970-01-01T00:00:00+00:00</time>
        <ele>789.0</ele>
      </trkpt>
      <trkpt lat="50.606464" lon="13.403099">
        <time>1970-01-01T00:00:00+00:00</time>
        <ele>785.0</ele>
      </trkpt>
      <trkpt lat="50.606734" lon="13.403059">
        <time>1970-01-01T00:00:00+00:00</time>
        <ele>781.0</ele>
      </trkpt>
      <trkpt lat="50.607308" lon="13.402765">
        <time>1970-01-01T00:00:00+00:00</time>
        <ele>779.0</ele>
      </trkpt>
      <trkpt lat="50.607836" lon="13.402284">
        <time>1970-01-01T00:00:00+00:00</time>
        <ele>776.0</ele>
      </trkpt>
      <trkpt lat="50.608526" lon="13.401905">
        <time>1970-01-01T00:00:00+00:00</time>
        <ele>773.0</ele>
      </trkpt>
      <trkpt lat="50.60919" lon="13.401661">
        <time>1970-01-01T00:00:00+00:00</time>
        <ele>770.0</ele>
      </trkpt>
      <trkpt lat="50.609466" lon="13.40182">
        <time>1970-01-01T00:00:00+00:00</time>
        <ele>767.0</ele>
      </trkpt>
      <trkpt lat="50.609582" lon="13.402103">
        <time>1970-01-01T00:00:00+00:00</time>
        <ele>765.0</ele>
      </trkpt>
      <trkpt lat="50.609585" lon="13.402765">
        <time>1970-01-01T00:00:00+00:00</time>
        <ele>758.0</ele>
      </trkpt>
      <trkpt lat="50.609503" lon="13.403257">
        <time>1970-01-01T00:00:00+00:00</time>
        <ele>749.0</ele>
      </trkpt>
      <trkpt lat="50.609359" lon="13.403699">
        <time>1970-01-01T00:00:00+00:00</time>
        <ele>743.0</ele>
      </trkpt>
      <trkpt lat="50.609107" lon="13.40397">
        <time>1970-01-01T00:00:00+00:00</time>
        <ele>742.0</ele>
      </trkpt>
      <trkpt lat="50.608612" lon="13.404253">
        <time>1970-01-01T00:00:00+00:00</time>
        <ele>743.0</ele>
      </trkpt>
      <trkpt lat="50.608188" lon="13.404598">
        <time>1970-01-01T00:00:00+00:00</time>
        <ele>735.0</ele>
      </trkpt>
      <trkpt lat="50.60793" lon="13.404989">
        <time>1970-01-01T00:00:00+00:00</time>
        <ele>735.0</ele>
      </trkpt>
      <trkpt lat="50.607624" lon="13.405526">
        <time>1970-01-01T00:00:00+00:00</time>
        <ele>734.0</ele>
      </trkpt>
      <trkpt lat="50.607509" lon="13.405792">
        <time>1970-01-01T00:00:00+00:00</time>
        <ele>733.0</ele>
      </trkpt>
      <trkpt lat="50.60733" lon="13.406577">
        <time>1970-01-01T00:00:00+00:00</time>
        <ele>721.0</ele>
      </trkpt>
      <trkpt lat="50.607434" lon="13.407326">
        <time>1970-01-01T00:00:00+00:00</time>
        <ele>707.0</ele>
      </trkpt>
      <trkpt lat="50.607376" lon="13.407451">
        <time>1970-01-01T00:00:00+00:00</time>
        <ele>707.0</ele>
      </trkpt>
      <trkpt lat="50.607277" lon="13.407665">
        <time>1970-01-01T00:00:00+00:00</time>
        <ele>707.0</ele>
      </trkpt>
      <trkpt lat="50.605853" lon="13.411893">
        <time>1970-01-01T00:00:00+00:00</time>
        <ele>726.0</ele>
      </trkpt>
      <trkpt lat="50.605496" lon="13.413011">
        <time>1970-01-01T00:00:00+00:00</time>
        <ele>729.0</ele>
      </trkpt>
      <trkpt lat="50.605333" lon="13.41342">
        <time>1970-01-01T00:00:00+00:00</time>
        <ele>728.0</ele>
      </trkpt>
      <trkpt lat="50.605135" lon="13.413824">
        <time>1970-01-01T00:00:00+00:00</time>
        <ele>729.0</ele>
      </trkpt>
      <trkpt lat="50.605323" lon="13.413807">
        <time>1970-01-01T00:00:00+00:00</time>
        <ele>727.0</ele>
      </trkpt>
      <trkpt lat="50.605459" lon="13.41395">
        <time>1970-01-01T00:00:00+00:00</time>
        <ele>726.0</ele>
      </trkpt>
      <trkpt lat="50.605628" lon="13.41434">
        <time>1970-01-01T00:00:00+00:00</time>
        <ele>723.0</ele>
      </trkpt>
      <trkpt lat="50.605872" lon="13.415058">
        <time>1970-01-01T00:00:00+00:00</time>
        <ele>713.0</ele>
      </trkpt>
      <trkpt lat="50.606355" lon="13.415738">
        <time>1970-01-01T00:00:00+00:00</time>
        <ele>707.0</ele>
      </trkpt>
      <trkpt lat="50.606467" lon="13.415985">
        <time>1970-01-01T00:00:00+00:00</time>
        <ele>710.0</ele>
      </trkpt>
      <trkpt lat="50.606561" lon="13.416147">
        <time>1970-01-01T00:00:00+00:00</time>
        <ele>712.0</ele>
      </trkpt>
      <trkpt lat="50.606651" lon="13.416132">
        <time>1970-01-01T00:00:00+00:00</time>
        <ele>712.0</ele>
      </trkpt>
      <trkpt lat="50.606769" lon="13.416166">
        <time>1970-01-01T00:00:00+00:00</time>
        <ele>713.0</ele>
      </trkpt>
      <trkpt lat="50.609153" lon="13.417352">
        <time>1970-01-01T00:00:00+00:00</time>
        <ele>680.0</ele>
      </trkpt>
      <trkpt lat="50.609221" lon="13.417431">
        <time>1970-01-01T00:00:00+00:00</time>
        <ele>678.0</ele>
      </trkpt>
      <trkpt lat="50.60934" lon="13.417743">
        <time>1970-01-01T00:00:00+00:00</time>
        <ele>677.0</ele>
      </trkpt>
      <trkpt lat="50.609551" lon="13.418923">
        <time>1970-01-01T00:00:00+00:00</time>
        <ele>680.0</ele>
      </trkpt>
      <trkpt lat="50.60981" lon="13.419835">
        <time>1970-01-01T00:00:00+00:00</time>
        <ele>669.0</ele>
      </trkpt>
      <trkpt lat="50.610266" lon="13.420564">
        <time>1970-01-01T00:00:00+00:00</time>
        <ele>660.0</ele>
      </trkpt>
      <trkpt lat="50.61139" lon="13.421992">
        <time>1970-01-01T00:00:00+00:00</time>
        <ele>648.0</ele>
      </trkpt>
      <trkpt lat="50.611485" lon="13.42226">
        <time>1970-01-01T00:00:00+00:00</time>
        <ele>642.0</ele>
      </trkpt>
      <trkpt lat="50.611512" lon="13.422485">
        <time>1970-01-01T00:00:00+00:00</time>
        <ele>637.0</ele>
      </trkpt>
      <trkpt lat="50.611383" lon="13.422732">
        <time>1970-01-01T00:00:00+00:00</time>
        <ele>635.0</ele>
      </trkpt>
      <trkpt lat="50.61124" lon="13.423086">
        <time>1970-01-01T00:00:00+00:00</time>
        <ele>629.0</ele>
      </trkpt>
      <trkpt lat="50.611294" lon="13.423558">
        <time>1970-01-01T00:00:00+00:00</time>
        <ele>623.0</ele>
      </trkpt>
      <trkpt lat="50.611356" lon="13.424566">
        <time>1970-01-01T00:00:00+00:00</time>
        <ele>605.0</ele>
      </trkpt>
      <trkpt lat="50.611287" lon="13.42491">
        <time>1970-01-01T00:00:00+00:00</time>
        <ele>599.0</ele>
      </trkpt>
      <trkpt lat="50.611042" lon="13.425832">
        <time>1970-01-01T00:00:00+00:00</time>
        <ele>581.0</ele>
      </trkpt>
      <trkpt lat="50.610886" lon="13.42683">
        <time>1970-01-01T00:00:00+00:00</time>
        <ele>576.0</ele>
      </trkpt>
      <trkpt lat="50.610648" lon="13.427647">
        <time>1970-01-01T00:00:00+00:00</time>
        <ele>571.0</ele>
      </trkpt>
      <trkpt lat="50.610598" lon="13.427655">
        <time>1970-01-01T00:00:00+00:00</time>
        <ele>571.0</ele>
      </trkpt>
      <trkpt lat="50.610443" lon="13.42772">
        <time>1970-01-01T00:00:00+00:00</time>
        <ele>573.0</ele>
      </trkpt>
      <trkpt lat="50.610008" lon="13.428144">
        <time>1970-01-01T00:00:00+00:00</time>
        <ele>574.0</ele>
      </trkpt>
      <trkpt lat="50.60982" lon="13.428377">
        <time>1970-01-01T00:00:00+00:00</time>
        <ele>575.0</ele>
      </trkpt>
      <trkpt lat="50.609933" lon="13.428603">
        <time>1970-01-01T00:00:00+00:00</time>
        <ele>574.0</ele>
      </trkpt>
      <trkpt lat="50.610031" lon="13.428873">
        <time>1970-01-01T00:00:00+00:00</time>
        <ele>574.0</ele>
      </trkpt>
      <trkpt lat="50.610071" lon="13.42905">
        <time>1970-01-01T00:00:00+00:00</time>
        <ele>574.0</ele>
      </trkpt>
      <trkpt lat="50.610008" lon="13.429554">
        <time>1970-01-01T00:00:00+00:00</time>
        <ele>576.0</ele>
      </trkpt>
      <trkpt lat="50.610012" lon="13.429788">
        <time>1970-01-01T00:00:00+00:00</time>
        <ele>576.0</ele>
      </trkpt>
      <trkpt lat="50.610058" lon="13.430246">
        <time>1970-01-01T00:00:00+00:00</time>
        <ele>575.0</ele>
      </trkpt>
      <trkpt lat="50.60994" lon="13.431568">
        <time>1970-01-01T00:00:00+00:00</time>
        <ele>579.0</ele>
      </trkpt>
      <trkpt lat="50.609934" lon="13.431718">
        <time>1970-01-01T00:00:00+00:00</time>
        <ele>579.0</ele>
      </trkpt>
      <trkpt lat="50.609949" lon="13.431874">
        <time>1970-01-01T00:00:00+00:00</time>
        <ele>578.0</ele>
      </trkpt>
      <trkpt lat="50.610013" lon="13.432">
        <time>1970-01-01T00:00:00+00:00</time>
        <ele>575.0</ele>
      </trkpt>
      <trkpt lat="50.609971" lon="13.43209">
        <time>1970-01-01T00:00:00+00:00</time>
        <ele>577.0</ele>
      </trkpt>
      <trkpt lat="50.609931" lon="13.432909">
        <time>1970-01-01T00:00:00+00:00</time>
        <ele>578.0</ele>
      </trkpt>
      <trkpt lat="50.610084" lon="13.433211">
        <time>1970-01-01T00:00:00+00:00</time>
        <ele>574.0</ele>
      </trkpt>
      <trkpt lat="50.610067" lon="13.433485">
        <time>1970-01-01T00:00:00+00:00</time>
        <ele>575.0</ele>
      </trkpt>
      <trkpt lat="50.610065" lon="13.433813">
        <time>1970-01-01T00:00:00+00:00</time>
        <ele>576.0</ele>
      </trkpt>
    </trkseg>
  </trk>
</gpx>
